{"data":{"norad_id":62736,"epoch":"2026-05-25T03:52:51.900384Z","epoch_age_seconds":64301,"freshness":"FRESH","line1":"1 62736U 25014B   26145.16171181  .00016851  00000+0  62023-3 0  9996","line2":"2 62736  42.9986  82.4350 0001845 255.1548 104.9099 15.27592596 74952","mean_motion":15.27592596,"eccentricity":0.0001845,"inclination_deg":42.9986,"raan_deg":82.435,"arg_perigee_deg":255.1548,"mean_anomaly_deg":104.9099,"bstar":0.00062023,"rev_number":7495,"period_min":94.265971422658,"perigee_km":481.74549746744,"apogee_km":484.27726121942,"semimajor_km":6861.1483793434,"source":"CELESTRAK","updated_at":"2026-05-25T13:38:19.738026Z"}}